Погода в Милюшине

Россия / Ярославская область     58°17′33″N   38°52′23″E
темп.,
°C
ветер,
м/с
пор.,
м/с
влажн.,
%
обл.,
%
осадки,
мм/ч
давл.,
гПа
погр.,
м
10 мая, пн
пн1000:00+4ссз58780 0.0 1021110
03:00+3ссз47830 0.0 1023110
06:00+3ссз46800 0.0 1026132
09:00+4сз34710 0.0 1027217
12:00+6сз33615 0.0 1028359
15:00+7сз21545 0.0 1028327
18:00+8с015414 0.0 1028124
21:00+7ююв225946 0.0 102910
11 мая, вт
вт1100:00+6ю226684 0.0 102910
03:00+5ю237131 0.0 103012
06:00+6ю227252 0.0 103127
09:00+8ююв2264100 0.0 1031146
12:00+11ссв1259100 0.0 1031292
15:00+12с235811 0.0 1030368
18:00+11с23685 0.0 1030110
21:00+10вюв22795 0.0 103019
12 мая, ср
ср1200:00+9юв33825 0.0 103027
03:00+8вюв33824 0.0 103018
06:00+8вюв34790 0.0 103047
09:00+12в24670 0.0 1029171
12:00+15всв35600 0.0 1028355
15:00+17в465510 0.0 1026500
18:00+17вюв59674 0.1 1024368
21:00+14вюв588068 0.3 1024138
13 мая, чт
чт1300:00+12вюв588755 0.0 1024147
03:00+10юв45915 0.0 102563
06:00+10вюв469163 0.0 1024105
09:00+14вюв598034 0.0 1023300
12:00+16вюв611697 0.0 1021508
15:00+13ю5888100 1.4 1021187
18:00+11вюв34100100 6.4 102066
21:00+11юв469961 6.8 102099
14 мая, пт
пт1400:00+10ююв349955 0.0 102043
03:00+9ююв3310060 0.1 102128
06:00+9ююв239965 0.0 102142
09:00+11юв2394100 0.1 1020189
12:00+13юв2483100 0.0 1019377
15:00+15всв1475100 0.0 1018576
18:00+17юв467468 0.1 1016312
21:00+14вюв5690100 0.1 101558